Location: B?jaj?g
(11.7167°N, 92.6667°E)
Time: 15:28:46
(UTC+00:00)

Intelsat 5-1 Rocket - Pass Details

Date: 18 September 2020
Orbit: 309 x 7605 km, 24.0° (Epoch: 28 October)

Event Time Altitude Azimuth Distance (km) Brightness Sun altitude
Rises 14:14:33 0° 256° (WSW) 8,098 8.5 -36.5°
Reaches altitude 10° 14:22:10 10° 259° (W) 5,701 7.6 -38.3°
Enters shadow 14:33:59 49° 301° (WNW) 1,604 4.2 -41.2°
